Zurück zum Katalog

SERVIS 2 DEB

AktivLEO
NORAD 43393·DEBRIS·🇷🇺 Russia

Gestartet Jun 2, 2010 von Plesetsk Cosmodrome

Loading…

Nächste Überflüge (nächste 24 Stunden)

TLE

AktuellSource: Space-Track

Epoche: Sep 14, 2026, 10:45 UTC

1 43393U 10023C   26257.44817664  .00003429  00000-0  55835-2 0  9996
2 43393 100.5890 252.4142 0020588  72.4752 287.8626 13.48570719622528

Verfolge SERVIS 2 DEB in Echtzeit mit AllMySat

Download on the App Store